Wind_Speed
20 18 18 17 16 17 21 20 18 15 17 22 22 22 22 20 16 9 5 3 7 10 13 11 5 7 4 2 3 2 3 4 3 3 3 5 5 3 3 7 5 4 4 1 7
19 19 18 16 17 14 22 22 16 20 22 24 25 24 22 20 12 8 2 7 11 13 10 7 7 6 3 2 2 3 3 2 4 5 2 1 3 2 4 8 11 11 9 5 4
18 18 14 9 13 4 27 22 21 25 26 27 25 23 21 20 8 5 5 9 10 11 10 10 8 5 3 2 2 2 3 3 3 3 3 3 5 4 7 9 13 12 8 7 6
17 16 13 8 11 14 18 21 26 27 26 24 22 22 15 5 4 1 7 10 10 10 11 8 7 5 5 4 1 3 2 2 2 2 3 4 7 9 14 15 4 6 6 9 9
17 16 15 13 20 18 20 23 25 25 22 20 19 13 8 8 6 7 8 10 9 9 9 5 6 4 5 5 3 2 4 2 1 3 5 8 12 14 21 17 15 14 12 14 12
20 23 28 24 15 21 23 24 23 21 19 17 11 8 6 9 6 9 8 7 8 7 7 6 3 5 7 3 2 3 3 1 1 3 5 7 11 4 3 2 4 6 10 10 10
24 26 25 18 23 21 22 18 19 18 15 10 10 15 18 7 9 10 9 9 8 7 7 8 11 3 4 5 3 4 3 3 2 2 3 9 12 13 14 8 8 10 10 10 11
27 25 23 21 20 16 14 14 16 12 14 12 10 7 8 11 10 7 9 9 9 9 10 9 10 8 4 6 2 3 3 4 6 2 2 3 10 3 6 7 9 8 10 12 12
25 23 19 15 15 15 17 16 14 11 8 9 7 6 6 9 7 9 7 8 8 7 8 7 5 5 3 2 3 4 6 4 2 2 4 5 13 5 5 13 20 18 16 15 14
17 14 14 14 15 16 16 14 13 8 7 9 6 7 5 3 9 8 6 7 5 3 4 3 3 3 1 2 2 1 5 4 6 3 7 14 21 22 18 17 19 17 14 10 7
14 12 9 14 18 13 16 5 1 4 21 11 7 14 8 8 14 5 5 7 3 3 1 4 6 5 5 6 4 3 6 9 8 4 10 10 19 23 19 19 16 9 6 6 6
11 11 5 3 2 3 2 1 5 10 14 13 13 14 11 11 3 9 7 3 2 3 1 2 5 5 3 3 2 3 7 7 6 2 9 15 24 21 11 6 5 4 5 4 5
9 8 8 9 6 4 8 17 13 7 3 7 10 7 6 8 6 10 7 3 6 5 4 1 6 3 2 1 4 0 6 7 5 15 5 13 12 3 4 5 5 4 3 2 2
10 8 6 7 9 11 8 6 4 2 3 7 5 5 5 2 4 10 6 3 3 4 5 6 3 1 1 0 5 5 4 5 10 10 5 7 5 8 6 5 5 5 4 2 1
10 10 7 5 4 1 2 1 2 2 4 4 3 3 5 3 2 6 8 4 3 5 3 2 4 2 2 2 4 4 5 6 6 7 6 4 3 3 3 6 6 5 5 3 1
9 8 6 1 2 1 1 2 2 2 2 2 2 1 2 5 3 1 2 4 3 2 6 4 1 2 3 1 3 5 6 7 3 3 2 1 2 4 3 3 3 7 5 2 2
8 8 8 6 1 2 2 3 3 2 1 1 2 1 3 3 3 3 2 4 2 3 2 2 2 2 1 2 1 4 4 2 2 2 2 2 3 7 6 3 2 4 5 5 5
6 6 10 8 4 1 3 0 4 2 1 2 1 2 1 2 2 2 1 2 4 2 0 1 1 1 2 2 3 3 2 1 4 4 6 4 5 1 4 3 2 2 4 6 5
4 4 9 10 6 3 1 2 1 2 3 5 3 2 3 2 1 1 1 2 3 5 3 3 2 2 1 1 3 2 1 3 3 2 3 3 5 2 5 4 3 3 5 8 11
3 2 10 9 5 5 2 3 1 1 1 1 1 2 2 3 3 2 1 2 3 2 4 2 2 1 3 3 2 4 2 2 3 3 4 4 3 2 5 7 8 10 13 15 17
4 0 10 8 5 2 2 3 3 2 2 3 0 2 1 1 1 0 2 3 1 3 3 1 1 4 1 7 3 3 3 5 3 3 3 4 1 4 4 5 8 15 15 13 13
4 1 12 4 0 2 3 3 2 3 1 1 1 3 2 1 1 1 1 2 2 2 2 2 3 4 2 3 2 5 6 7 3 2 3 3 6 3 5 7 5 18 13 13 13
3 3 9 5 2 3 3 4 2 3 2 1 1 2 1 1 2 2 1 1 3 3 1 3 3 3 3 4 4 5 8 9 5 3 7 5 1 5 10 5 14 15 11 17 16
3 2 5 7 4 3 3 2 3 1 2 1 1 1 2 3 2 1 2 2 3 4 1 1 3 8 5 4 2 5 8 11 11 5 6 12 12 8 7 12 18 10 11 18 17
5 3 3 3 5 5 3 1 3 2 1 2 3 5 2 2 2 3 2 3 4 4 3 3 5 6 12 15 15 17 18 16 16 18 9 8 10 13 20 16 9 9 16 22 20
4 2 2 2 2 3 1 1 1 1 3 2 3 1 5 3 3 2 2 3 4 5 5 3 4 5 7 14 11 17 18 18 20 22 22 24 25 18 4 11 9 15 21 21 22
7 5 2 1 2 3 2 1 1 0 3 2 3 3 6 7 7 8 9 11 7 6 8 4 3 4 6 2 13 15 9 15 14 10 14 17 14 7 10 10 14 20 20 20 24
Wind_Direction
145 148 152 162 164 173 169 172 168 175 158 145 144 145 140 135 136 117 120 195 156 144 135 124 126 132 113 76 46 1 226 213 167 207 92 151 213 193 267 263 235 234 265 185 230
128 140 148 157 149 154 171 161 167 157 150 141 140 138 133 125 125 96 130 148 145 141 121 145 146 140 109 99 4 292 258 96 22 38 59 154 264 324 271 243 250 252 241 240 268
122 133 136 133 161 110 166 158 161 147 143 141 140 137 134 131 138 41 132 141 142 145 145 153 153 142 129 130 23 26 345 124 99 57 359 298 267 250 264 264 257 266 279 216 276
111 114 115 120 158 120 135 155 149 142 143 143 140 137 137 103 154 107 137 141 136 138 143 151 163 148 145 163 114 157 91 51 124 36 345 291 312 265 251 256 273 291 256 246 278
110 108 114 112 151 131 146 144 141 139 142 143 141 138 115 105 62 112 131 141 140 140 149 157 168 151 140 123 131 99 150 127 74 328 302 292 271 274 275 264 268 268 263 270 264
102 101 81 109 130 136 137 138 135 138 144 146 145 128 127 93 83 92 113 135 146 145 157 151 114 93 108 89 337 99 142 126 322 303 288 295 282 315 263 213 246 261 256 256 235
106 98 124 122 128 129 128 133 132 142 144 143 133 106 96 79 69 86 104 108 116 142 142 133 129 104 112 116 112 129 209 207 213 296 299 316 275 228 259 256 264 259 257 246 242
106 95 104 115 118 120 114 118 133 140 124 134 129 83 80 77 81 82 97 94 101 109 124 120 110 100 60 115 133 222 248 250 119 310 143 336 281 177 194 255 267 265 259 256 255
91 100 102 106 107 108 105 108 116 121 116 116 99 112 85 76 68 78 97 112 100 99 100 97 83 84 93 222 201 201 279 252 188 94 316 240 289 298 226 277 277 278 273 266 266
75 91 101 106 108 111 103 101 94 98 94 77 80 96 67 59 65 67 84 101 99 87 71 47 69 109 61 240 328 346 293 274 282 66 303 278 272 280 278 275 277 280 275 260 239
72 68 82 111 108 98 107 73 40 69 58 68 70 90 88 78 56 36 93 81 72 63 64 40 70 79 69 38 20 354 297 296 309 31 317 290 293 286 288 275 275 271 228 203 197
59 65 90 143 74 70 291 286 119 131 77 56 65 69 69 70 79 26 64 59 41 86 336 127 87 73 47 15 340 325 300 326 301 8 322 307 294 290 282 244 211 174 167 180 183
47 45 47 71 99 118 122 115 119 124 93 43 48 43 42 46 46 9 42 51 51 56 43 114 92 103 290 269 312 30 340 355 319 317 274 306 283 133 103 159 172 195 194 194 213
37 34 55 83 87 105 102 110 102 87 102 22 20 19 357 59 66 31 38 57 63 108 72 75 112 186 228 65 328 301 26 330 318 340 320 11 292 315 136 163 195 183 174 168 189
13 23 41 69 129 173 129 42 11 38 87 9 28 9 15 43 75 20 37 41 74 113 195 122 160 175 248 37 338 11 335 320 318 300 310 158 281 294 134 199 194 169 115 111 122
357 14 15 15 61 120 356 16 19 37 105 56 332 351 152 54 58 34 54 70 115 103 66 95 113 318 29 39 343 336 298 266 266 295 250 73 310 287 21 9 164 115 104 78 350
6 24 21 36 32 47 51 66 32 29 171 129 78 52 79 56 87 26 57 80 1 45 357 153 128 103 324 284 164 323 3 333 282 242 311 175 274 271 308 129 64 106 68 23 358
19 22 22 25 27 59 115 142 75 56 111 94 106 122 80 352 82 50 166 135 69 348 191 254 247 200 111 0 352 19 324 352 296 325 328 158 235 269 57 78 85 10 347 353 359
5 16 13 15 20 97 216 59 91 93 109 161 163 193 136 136 312 238 29 51 54 13 353 318 136 121 33 337 301 109 239 34 292 224 270 241 248 240 44 81 165 72 23 13 345
15 38 10 8 46 100 63 84 81 58 122 242 264 288 174 143 218 232 172 75 112 38 346 66 273 185 121 209 172 279 41 233 181 285 286 236 255 240 28 58 99 57 2 350 343
36 41 355 8 79 77 81 78 114 114 358 317 48 148 83 151 290 79 63 123 157 135 9 352 281 121 230 204 182 156 211 219 298 261 292 310 44 57 146 86 82 18 1 351 347
46 334 354 37 88 56 68 55 112 131 61 35 2 18 355 65 286 268 266 45 126 157 332 61 313 262 260 99 321 287 267 239 259 176 257 303 278 89 89 110 354 351 348 351 349
39 6 360 33 39 84 118 112 100 159 146 129 104 12 16 4 278 259 234 66 185 207 301 145 214 287 190 181 192 237 218 233 267 306 241 260 214 123 146 165 352 346 350 347 341
34 355 11 44 44 45 132 133 132 97 132 129 122 189 195 213 202 250 220 150 187 210 202 188 267 254 272 356 340 229 216 218 211 223 252 232 260 201 269 325 333 344 338 341 332
41 62 15 1 39 34 344 97 146 179 222 213 195 237 223 238 227 239 233 202 190 191 191 257 267 270 280 282 273 263 257 246 223 235 255 268 283 294 319 317 325 327 331 329 328
37 349 360 76 328 306 40 123 227 153 205 206 259 206 221 251 291 307 255 226 281 178 210 199 275 310 283 267 272 272 260 249 247 253 249 258 273 289 342 326 324 326 327 322 321
24 32 36 36 331 287 46 64 67 263 189 268 263 249 240 266 290 283 270 265 270 230 209 223 264 307 274 311 300 278 271 231 229 230 240 246 264 310 322 329 318 318 315 313 318
Height
1451 1456 1460 1464 1467 1470 1474 1477 1481 1484 1485 1487 1491 1495 1498 1502 1506 1507 1508 1509 1508 1510 1510 1514 1516 1517 1520 1520 1519 1518 1515 1512 1517 1518 1518 1526 1526 1528 1528 1528 1528 1529 1530 1530 1529
1455 1459 1463 1466 1469 1471 1475 1480 1483 1485 1488 1490 1494 1498 1501 1504 1510 1510 1510 1509 1511 1511 1513 1517 1518 1519 1521 1522 1522 1519 1515 1514 1522 1523 1522 1526 1528 1527 1529 1525 1526 1527 1528 1528 1528
1462 1464 1468 1470 1473 1473 1477 1482 1486 1488 1491 1494 1498 1501 1504 1506 1511 1512 1510 1511 1512 1512 1513 1516 1519 1520 1521 1522 1523 1522 1517 1524 1527 1529 1530 1528 1529 1529 1527 1523 1522 1523 1524 1525 1527
1467 1469 1471 1473 1476 1479 1478 1486 1490 1491 1495 1498 1501 1503 1507 1508 1511 1513 1512 1513 1513 1514 1516 1518 1520 1520 1519 1520 1524 1523 1527 1527 1530 1530 1530 1530 1530 1527 1525 1523 1523 1524 1524 1524 1525
1471 1473 1475 1473 1482 1484 1487 1492 1494 1496 1499 1501 1504 1506 1508 1512 1515 1513 1513 1514 1515 1516 1517 1519 1520 1519 1518 1522 1523 1522 1528 1530 1531 1531 1531 1531 1529 1527 1521 1521 1521 1522 1522 1522 1522
1478 1477 1479 1481 1486 1491 1494 1497 1497 1500 1502 1504 1507 1507 1510 1513 1515 1514 1514 1516 1516 1517 1518 1518 1520 1521 1523 1525 1524 1528 1529 1530 1531 1531 1531 1531 1526 1526 1516 1517 1518 1518 1519 1519 1520
1484 1486 1489 1492 1493 1495 1497 1499 1499 1503 1504 1506 1508 1511 1509 1517 1516 1516 1516 1517 1517 1518 1518 1519 1519 1523 1525 1527 1530 1529 1529 1530 1530 1531 1530 1530 1516 1515 1515 1516 1516 1516 1516 1517 1518
1491 1493 1495 1498 1499 1500 1500 1501 1504 1506 1507 1508 1510 1511 1516 1518 1518 1518 1518 1519 1520 1520 1521 1521 1520 1522 1526 1530 1530 1527 1528 1521 1528 1531 1530 1530 1512 1508 1512 1512 1511 1512 1513 1514 1515
1500 1502 1502 1503 1504 1504 1504 1507 1508 1509 1510 1510 1512 1514 1521 1520 1521 1519 1520 1520 1522 1523 1524 1523 1523 1526 1529 1527 1525 1524 1516 1518 1522 1531 1531 1529 1513 1505 1510 1509 1507 1507 1508 1509 1511
1508 1507 1507 1507 1507 1508 1508 1511 1512 1512 1512 1513 1514 1517 1524 1526 1522 1522 1523 1523 1523 1526 1526 1526 1526 1526 1527 1526 1522 1522 1523 1520 1522 1525 1528 1522 1513 1502 1504 1503 1501 1502 1504 1505 1507
1513 1511 1511 1511 1512 1512 1513 1513 1518 1520 1516 1520 1523 1521 1523 1524 1525 1526 1525 1524 1525 1528 1523 1527 1532 1530 1534 1533 1533 1533 1528 1523 1517 1528 1529 1513 1507 1496 1497 1497 1497 1499 1501 1503 1505
1517 1516 1515 1514 1514 1514 1515 1516 1516 1520 1524 1524 1523 1522 1524 1524 1528 1527 1524 1527 1527 1527 1528 1527 1532 1538 1539 1538 1535 1535 1530 1520 1522 1528 1528 1513 1502 1491 1489 1492 1496 1498 1499 1502 1504
1521 1519 1518 1516 1515 1516 1516 1517 1518 1519 1520 1527 1526 1528 1528 1529 1530 1528 1527 1529 1528 1529 1527 1526 1539 1542 1541 1538 1534 1530 1532 1533 1542 1529 1517 1518 1485 1483 1491 1493 1496 1498 1500 1502 1503
1523 1521 1520 1519 1522 1519 1520 1520 1520 1520 1520 1531 1531 1532 1533 1530 1532 1530 1529 1532 1532 1534 1534 1538 1544 1543 1541 1538 1538 1530 1540 1541 1538 1535 1524 1522 1506 1479 1485 1491 1495 1495 1498 1500 1502
1524 1522 1521 1521 1521 1521 1522 1521 1520 1520 1532 1535 1534 1534 1533 1533 1535 1533 1532 1533 1533 1536 1538 1541 1542 1542 1538 1541 1540 1537 1542 1541 1540 1540 1537 1521 1528 1485 1489 1491 1491 1493 1498 1501 1502
1525 1523 1522 1522 1522 1522 1521 1521 1521 1527 1537 1539 1536 1534 1533 1534 1535 1536 1536 1536 1538 1536 1536 1542 1545 1544 1542 1543 1543 1543 1540 1536 1540 1540 1535 1523 1527 1496 1488 1494 1489 1495 1500 1501 1502
1525 1524 1523 1522 1522 1521 1521 1522 1532 1526 1540 1538 1535 1534 1533 1535 1535 1536 1535 1534 1533 1548 1552 1539 1540 1544 1545 1541 1543 1542 1550 1533 1531 1530 1515 1536 1531 1498 1492 1496 1496 1497 1501 1503 1503
1525 1524 1524 1523 1522 1521 1522 1524 1541 1533 1533 1537 1536 1535 1533 1537 1537 1536 1534 1532 1538 1536 1535 1536 1542 1543 1546 1544 1543 1543 1544 1542 1540 1519 1511 1529 1520 1496 1496 1498 1500 1502 1503 1503 1503
1526 1525 1524 1522 1521 1521 1524 1529 1530 1529 1533 1534 1536 1531 1534 1536 1536 1534 1533 1533 1539 1539 1536 1532 1537 1546 1546 1546 1548 1543 1541 1546 1546 1535 1534 1503 1499 1493 1495 1495 1500 1503 1503 1503 1502
1526 1526 1525 1523 1522 1523 1525 1532 1535 1537 1537 1536 1529 1532 1527 1533 1534 1531 1533 1539 1540 1542 1542 1540 1540 1544 1547 1548 1548 1545 1546 1543 1545 1536 1520 1490 1497 1498 1507 1501 1501 1503 1502 1502 1501
1527 1528 1527 1524 1524 1525 1529 1534 1537 1539 1539 1536 1532 1532 1530 1531 1533 1532 1534 1540 1541 1543 1543 1542 1542 1544 1545 1542 1534 1546 1542 1544 1542 1532 1519 1505 1494 1499 1510 1504 1502 1504 1502 1501 1500
1528 1529 1528 1525 1527 1527 1529 1534 1538 1540 1540 1539 1538 1536 1533 1535 1534 1535 1534 1537 1542 1542 1540 1543 1539 1537 1531 1539 1542 1539 1533 1530 1533 1524 1526 1526 1511 1498 1502 1504 1503 1501 1501 1500 1498
1531 1531 1529 1527 1526 1528 1537 1538 1539 1539 1539 1539 1538 1539 1539 1537 1539 1538 1539 1543 1544 1544 1542 1543 1538 1536 1531 1540 1541 1539 1532 1532 1531 1537 1529 1518 1495 1498 1499 1499 1499 1500 1500 1499 1497
1533 1533 1533 1531 1534 1531 1533 1536 1538 1541 1540 1541 1540 1541 1540 1539 1541 1539 1540 1543 1544 1544 1545 1545 1538 1533 1524 1527 1531 1532 1530 1531 1532 1531 1516 1506 1492 1493 1492 1494 1497 1500 1500 1498 1495
1535 1539 1539 1536 1534 1537 1536 1537 1537 1539 1542 1542 1541 1539 1538 1538 1539 1539 1540 1541 1544 1545 1545 1545 1539 1533 1533 1530 1527 1525 1524 1523 1529 1524 1519 1497 1495 1494 1498 1499 1499 1501 1499 1496 1493
1540 1540 1540 1540 1540 1538 1538 1537 1537 1539 1540 1540 1540 1538 1539 1538 1535 1536 1538 1539 1535 1544 1544 1544 1538 1537 1534 1520 1520 1520 1514 1514 1516 1513 1510 1509 1503 1501 1503 1502 1501 1500 1498 1494 1491
1542 1541 1541 1541 1539 1537 1537 1538 1539 1540 1540 1540 1540 1539 1539 1538 1539 1539 1539 1538 1537 1537 1540 1541 1539 1535 1524 1521 1518 1507 1493 1497 1502 1503 1504 1505 1499 1500 1502 1502 1501 1498 1495 1492 1488